Location: ????
(55.7389°N, 38.9971°E)
Time: 04:56:28
(UTC+00:00)

Daily predictions for brighter satellites

Satellite Brightness Start Highest point End
(mag) Time Altitude Azimuth Time Altitude Azimuth Time Altitude Azimuth
NOSS 3-3 (A) 4.5 00:04:18 35° S 00:06:20 48° SE 00:12:40 10° NE
Cosmos 1812 Rocket 3.8 00:06:28 51° WNW 00:06:28 51° WNW 00:10:38 10° N
NOSS 3-3 (C) 4.5 00:04:25 34° S 00:06:27 47° SE 00:12:46 10° NE
Cosmos 1745 Rocket 4.0 00:06:16 46° SW 00:08:00 65° WNW 00:14:08 10° N
Cosmos 1408 Rocket 4.3 00:04:08 10° N 00:08:32 54° ENE 00:11:55 16° SSE
Meteor 2-20 Rocket 4.3 00:02:29 10° NNW 00:08:37 89° WSW 00:12:29 24° S
ATLAS 5 CENTAUR R/B 1.6 00:08:33 52° NW 00:08:58 55° NNW 00:13:24 10° NE
GEOS 3 Rocket 3.9 00:03:46 10° ESE 00:09:00 72° NE 00:14:21 10° NW
Timation 1 Rocket 4.2 00:04:50 10° NW 00:10:50 71° WSW 00:16:48 10° SSE
Helios 1A 4.2 00:07:24 10° SE 00:11:17 41° ENE 00:15:13 10° N
Cosmos 1346 Rocket 2.9 00:12:31 60° WNW 00:12:31 60° WNW 00:16:18 10° N
Cosmos 921 Rocket 3.0 00:14:45 63° SW 00:15:28 85° WNW 00:20:01 10° NNE
Lacrosse 4 Rocket 3.6 00:13:47 14° NW 00:15:57 19° NNW 00:18:59 10° NNE
Cosmos 2263 4.2 00:14:36 42° SSW 00:16:38 77° ESE 00:22:26 10° NE
Thor Agena Rocket 3.4 00:12:14 10° NNE 00:17:19 75° WNW 00:18:42 48° SW
Cosmos 2297 3.9 00:15:56 42° WSW 00:17:42 61° NW 00:23:24 10° NNE
Meteor 1-25 Rocket 4.2 00:13:17 10° NNW 00:18:51 59° W 00:20:34 41° SSW
Cosmos 1709 Rocket 3.9 00:16:52 38° SSW 00:19:22 78° WNW 00:25:35 10° N
Cosmos 2181 Rocket 4.0 00:13:27 10° NNW 00:19:54 81° W 00:24:43 19° S
Okean 3 Rocket 3.4 00:18:11 10° NNW 00:22:34 73° W 00:23:31 52° SSW
ADEOS II 2.1 00:19:18 10° NNE 00:24:32 66° WNW 00:26:11 42° SW
Cosmos 44 3.2 00:24:40 50° SSW 00:25:45 73° SE 00:30:30 10° NE
YAOGAN 11 3.9 00:24:29 43° S 00:25:49 77° WSW 00:30:08 10° NNW
ARGOS Delta rocket 3.6 00:24:45 26° SSE 00:27:11 87° ENE 00:31:42 10° NNW
Cosmos 972 Rocket 4.4 00:24:04 10° NNW 00:30:36 85° ENE 00:36:21 10° SSE
Meteor 1-5 Rocket 4.2 00:27:28 10° NNW 00:33:12 89° WSW 00:39:05 10° SSE
Cosmos 1538 Rocket 4.0 00:33:37 39° SW 00:35:40 77° WNW 00:41:06 10° NNE
Cosmos 1371 Rocket 3.8 00:30:44 10° NNW 00:35:57 81° WSW 00:41:08 10° SSE
AQUA 4.2 00:31:54 10° N 00:36:29 48° WNW 00:37:43 38° WSW
SL-16 R/B 3.3 00:36:20 30° WSW 00:37:08 31° W 00:42:39 10° NNW
USA 281 4.3 00:33:02 10° ESE 00:39:12 46° NE 00:45:25 10° NNW
ATLAS CENTAUR R/B 1.5 00:39:00 44° WSW 00:40:17 70° NW 00:44:32 10° NE
NPP 4.3 00:35:19 10° N 00:40:19 40° WNW 00:42:07 30° WSW
IRS-1D 3.7 00:36:25 10° NNE 00:41:23 69° ESE 00:44:43 21° S
Cosmos 1441 Rocket 4.3 00:41:53 29° WNW 00:41:53 29° WNW 00:45:09 10° N
ERS-2 1.9 00:39:09 10° N 00:42:35 61° WNW 00:42:54 57° W
Cosmos 2056 Rocket 3.4 00:38:18 10° NNW 00:43:29 75° WSW 00:48:44 10° SSE
Cosmos 1842 Rocket 3.6 00:41:20 27° S 00:43:37 75° E 00:48:00 10° NNE
Nadezhda 3 Rocket 4.2 00:39:00 10° N 00:45:19 76° ENE 00:51:39 10° SSE
Cosmos 1782 2.6 00:45:25 45° SSW 00:46:31 74° WNW 00:50:27 10° N
MSX 4.1 00:41:22 10° N 00:46:59 52° WNW 00:49:36 30° WSW
Lacrosse 5 1.8 00:46:22 33° WSW 00:48:41 89° NNW 00:53:49 10° ENE
SeaSat 1 2.4 00:47:19 10° NE 00:52:17 81° ESE 00:55:01 27° SSW
NOSS 2-1 (E) 3.5 00:50:15 10° NW 00:54:11 70° SW 00:59:37 10° SE
Cosmos 2369 Rocket 2.5 00:51:44 29° WSW 00:54:24 55° NW 00:59:57 10° NNE
Cosmos 1766 Rocket 4.5 00:50:48 10° NNW 00:54:41 29° W 00:54:51 29° W
Cosmos 1624 Rocket 4.0 00:49:58 10° NNW 00:55:16 64° WSW 01:00:30 10° SSE
Cosmos 1420 Rocket 3.9 00:50:59 10° NNW 00:56:08 64° WSW 01:01:15 10° SSE
Cosmos 2297 Rocket 2.4 00:50:38 10° NNW 00:56:20 73° NE 01:02:00 10° SE
Cosmos 1500 Rocket 3.4 00:52:40 10° NNW 00:57:01 84° W 01:01:21 10° S
Cosmos 1656 Rocket 4.0 00:57:30 27° WSW 01:00:12 51° NW 01:05:37 10° NNE
Orbus 7S? 4.4 00:52:24 10° WNW 01:01:29 56° SW 01:05:28 10° SE
USA 102 4.2 00:59:45 35° S 01:01:31 68° WSW 01:09:13 10° NW
FENGYUN 3A 3.6 00:56:05 10° NNE 01:01:32 75° WNW 01:05:15 21° SSW
Cosmos 1805 Rocket 3.6 00:59:52 10° NNW 01:04:20 86° ENE 01:08:48 10° SSE
Cosmos 2074 Rocket 4.0 00:59:30 12° S 01:05:26 90° WNW 01:11:47 10° NNE
CBERS-1 4.4 01:01:09 10° NNE 01:06:16 63° ESE 01:11:21 10° S
Cosmos 1933 3.7 01:05:23 32° WSW 01:06:48 46° WNW 01:10:44 10° N
CZ-2C R/B 2.7 01:01:28 10° S 01:06:58 59° W 01:12:25 10° NNW
Resurs 1-4 Rocket 3.4 01:02:45 10° N 01:07:02 25° NW 01:09:19 19° W
Cosmos 2221 2.9 01:05:34 30° SW 01:07:18 47° WNW 01:11:31 10° N
SL-27 R/B 2.6 01:06:31 10° NW 01:09:22 38° W 01:09:22 38° W
CZ-2D R/B 3.5 01:07:13 10° N 01:11:24 25° NW 01:13:47 18° W
IDEFIX/ARIANE 42P 3.7 01:07:21 10° N 01:11:44 29° WNW 01:14:03 20° W
Genesis I 4.0 01:10:30 20° SSW 01:12:51 45° SE 01:16:35 10° ENE
Cosmos 2227 Rocket 2.7 01:07:28 10° NNW 01:13:07 64° NE 01:18:44 10° SE
Cosmos 1943 Rocket 3.7 01:10:34 13° WNW 01:14:27 25° NNW 01:19:04 10° NNE
Cosmos 2219 4.0 01:08:55 10° NNW 01:14:28 54° NE 01:20:02 10° SE
PAYLOAD A 4.3 01:09:31 10° NNE 01:14:56 76° ESE 01:20:09 10° S
Cosmos 1515 4.3 01:11:56 10° S 01:15:33 53° E 01:19:11 10° NNE
USA 32 4.3 01:10:23 10° N 01:15:39 73° E 01:20:53 10° SSE
Cosmos 1536 3.5 01:15:34 10° N 01:19:29 56° ENE 01:23:23 10° SSE
COSMOS 2455 4.4 01:14:25 10° S 01:19:38 32° ESE 01:24:52 10° NE
Cosmos 1484 Rocket 4.2 01:16:23 10° NNE 01:19:55 37° E 01:23:28 10° SSE
Cosmos 1452 Rocket 3.6 01:15:23 10° NNW 01:20:44 81° ENE 01:26:01 10° SSE
Meteor 1-11 Rocket 3.9 01:17:15 10° NNW 01:22:53 77° ENE 01:28:24 10° SSE
Cosmos 1812 3.7 01:22:10 24° W 01:23:18 28° WNW 01:26:35 10° N
Cosmos 2278 Rocket 4.3 01:19:42 10° WNW 01:23:37 19° NNW 01:27:34 10° NNE
Meteor 1-26 Rocket 4.3 01:20:58 16° SSW 01:25:33 62° WNW 01:31:22 10° N
ATLAS 2AS CENTAUR R/B 3.0 01:19:55 10° NW 01:27:09 73° NNE 01:33:54 10° ESE
Envisat 3.5 01:23:11 10° NNE 01:28:15 60° ESE 01:33:16 10° S
ALOS 2.5 01:23:53 10° N 01:28:25 53° WNW 01:31:54 17° SW
Cosmos 1295 Rocket 4.5 01:25:13 10° SSW 01:31:32 81° WNW 01:37:51 10° N
Cosmos 1151 Rocket 4.0 01:27:28 10° S 01:31:39 49° E 01:35:50 10° NNE
USA 276 3.7 01:31:10 16° SSW 01:32:11 19° SSE 01:34:23 10° ESE
CZ-2C R/B 2.3 01:28:18 10° NNE 01:33:05 76° WNW 01:38:01 10° SSW
NOSS 3-4 (A) 4.4 01:38:50 10° WNW 01:44:57 35° WSW 01:51:47 10° S
NOSS 3-4 (C) 4.3 01:38:56 10° WNW 01:45:04 35° WSW 01:51:55 10° S
NOSS 2-1 (C) 4.4 01:42:00 10° WNW 01:45:43 32° SW 01:50:37 10° SSE
Sich 1 3.3 01:41:53 10° NNW 01:46:09 47° W 01:50:22 10° SSW
Helios 1A 3.8 01:43:11 10° SSW 01:46:49 29° W 01:50:28 10° NNW
GEOS 3 Rocket 4.1 01:42:29 10° SSE 01:47:20 38° SW 01:52:18 10° WNW
DMSP B5D2-2 4.2 01:42:22 10° SSE 01:47:36 80° ENE 01:52:50 10° NNW
Cosmos 2263 Rocket 3.4 01:45:34 10° NNW 01:50:58 46° NE 01:56:22 10° ESE
Cosmos 1666 Rocket 3.5 01:47:51 10° NNW 01:52:12 82° W 01:56:32 10° S
Cosmos 1339 Rocket 4.4 01:47:02 10° NNW 01:53:05 69° W 01:59:10 10° S
ATLAS 5 CENTAUR R/B 3.0 01:50:21 10° WNW 01:54:07 32° N 01:58:33 10° ENE
Cosmos 1743 2.8 01:51:12 10° NNW 01:54:51 50° W 01:58:29 10° S
YAOGAN 6 2.5 01:51:46 10° N 01:55:17 71° WNW 01:58:50 10° SSW
Lacrosse 4 Rocket 3.9 01:53:19 10° NNW 01:55:58 16° N 01:58:34 10° NE
NOSS 3-3 (A) 4.3 01:51:44 13° WSW 01:57:05 65° NNW 02:04:09 10° NE
NOSS 3-3 (C) 4.3 01:51:50 13° WSW 01:57:12 65° NNW 02:04:15 10° NE
DELTA 2 DEB (DPAF) 4.3 01:53:19 10° SSE 01:57:41 77° ENE 02:02:06 10° NNW
CZ-2D R/B 4.2 01:54:01 10° NNE 01:58:16 58° ESE 02:02:22 10° S
SKYMED 2 4.3 01:56:07 10° SSE 02:00:24 59° ENE 02:04:42 10° N
IRS-1C 4.2 01:56:00 10° NNE 02:01:22 85° ESE 02:06:44 10° SSW
Meteor 2-6 Rocket 4.4 01:55:36 10° SSW 02:01:32 64° WNW 02:07:26 10° N
ADEOS II 3.8 02:00:01 10° N 02:03:20 17° NW 02:06:40 10° W
Cosmos 1633 Rocket 3.0 02:00:00 10° NNW 02:04:26 76° W 02:08:50 10° S
Cosmos 2184 Rocket 4.4 01:59:47 10° SW 02:05:36 42° WNW 02:11:27 10° N
Cosmos 44 4.1 02:03:03 10° W 02:07:19 38° NNW 02:11:53 10° NE
METEOR-M 4.4 02:02:49 10° N 02:08:00 51° WNW 02:13:09 10° SW
RESURS DK-1 3.5 02:04:29 10° NNW 02:08:30 47° NE 02:12:30 10° ESE
Cosmos 1680 Rocket 4.0 02:05:04 10° SW 02:10:06 45° NW 02:15:13 10° NNE
Meteor 1-10 Rocket 4.4 02:04:31 10° SSW 02:10:28 78° WNW 02:16:27 10° NNE
Helios 1B rocket 2.8 02:07:43 10° NNE 02:11:44 66° ESE 02:15:42 10° S
ARIANE 5 R/B 2.6 02:12:05 10° NNE 02:17:16 82° WNW 02:22:29 10° SSW
CZ-2C R/B 3.1 02:13:41 10° N 02:18:17 50° WNW 02:22:58 10° SW
SAR-Lupe-2 3.6 02:15:04 10° N 02:18:37 60° WNW 02:22:08 10° SSW
ATLAS CENTAUR R/B 2.8 02:15:28 10° WNW 02:19:17 28° NNW 02:22:54 10° NE
Cosmos 1697 Rocket 3.9 02:16:46 10° S 02:22:05 45° ESE 02:27:25 10° NE
USA 281 3.3 02:17:07 10° SSE 02:23:37 61° WSW 02:30:08 10° NNW
SL-08 R/B 3.5 02:22:14 10° S 02:26:57 52° W 02:31:37 10° NNW
